Weather History for KMLP - May, 2014

Change the Weather History Date:

Monday, May 5, 2014

  Actual Average (K3TH) Record (K3TH)
Temperature  
Mean Temperature 34 °F -  
Max Temperature 39 °F 63 °F 84 °F (1998)
Min Temperature 30 °F 40 °F 36 °F (1997)
Degree Days  
Heating Degree Days 30    
Moisture  
Dew Point 31 °F    
Average Humidity 92    
Maximum Humidity 100    
Minimum Humidity 67    
Precipitation  
Precipitation 0.26 in - - ()
Sea Level Pressure  
Sea Level Pressure 29.83 in    
Wind  
Wind Speed 3 mph (West)    
Max Wind Speed 9 mph    
Max Gust Speed 21 mph    
Visibility 4 miles    
Events Fog , Snow    
Averages and records for this station are not official NWS values.
T = Trace of Precipitation, MM = Missing Value Source: NWS Daily Summary

Daily Weather History Graph

Daily Weather History Graph

Search for Another Location

Airport or City:

Trip Planner

Search our weather history database for the weather conditions in past years. The results will help you decide how hot, cold, wet, or windy it might be!

Date:

Astronomy

May. 05, 2014 Rise Set
Actual Time 5:19 AM PDT 8:00 PM PDT
Civil Twilight 4:44 AM PDT 8:35 PM PDT
Nautical Twilight 4:00 AM PDT 9:19 PM PDT
Astronomical Twilight 3:08 AM PDT 10:11 PM PDT
Moon 10:45 AM PDT (5/5) 12:45 AM PDT (5/5)
Length of Visible Light 15h 50m
Length of Day
14h 40m
Waxing Crescent, 37% of the Moon is Illuminated
May 5
Waxing Crescent
May 6
First Quarter
May 14
Full
May 21
Last Quarter
May 28
New

Hourly Weather History & Observations

Time (PDT) Temp. Windchill Dew Point Humidity Pressure Visibility Wind Dir Wind Speed Gust Speed Precip Events Conditions
12:07 AM 32.0 °F - 32.0 °F 100% 29.86 in 0.2 mi Calm Calm - 0.01 in Fog , Snow Light Snow
12:53 AM 30.9 °F - 30.9 °F 100% 29.77 in 0.2 mi Calm Calm - 0.07 in Fog , Snow Light Snow
1:03 AM 30.2 °F 26.7 °F 30.2 °F 100% 29.86 in 0.5 mi South 3.5 mph - 0.00 in Fog , Snow Light Snow
1:53 AM 32.0 °F 27.5 °F 30.9 °F 96% 29.75 in 0.5 mi Variable 4.6 mph - 0.01 in Fog , Snow Light Snow
2:06 AM 32.0 °F - 30.2 °F 93% 29.86 in 0.2 mi Calm Calm - 0.02 in Fog , Snow Snow
2:18 AM 32.0 °F 28.7 °F 30.2 °F 93% 29.85 in 0.5 mi Variable 3.5 mph - 0.05 in Fog , Snow Snow
2:53 AM 30.9 °F 24.3 °F 30.9 °F 100% 29.75 in 0.8 mi SSW 6.9 mph - 0.06 in Snow Light Snow
3:53 AM 30.9 °F 26.2 °F 30.9 °F 100% 29.74 in 0.5 mi SSW 4.6 mph - 0.00 in Fog , Snow Light Snow
4:32 AM 30.2 °F 26.7 °F 30.2 °F 100% 29.84 in 0.2 mi South 3.5 mph - 0.02 in Fog , Snow Light Snow
4:44 AM 30.2 °F 26.7 °F 30.2 °F 100% 29.84 in 0.5 mi South 3.5 mph - 0.02 in Fog , Snow Light Snow
4:53 AM 30.9 °F - 30.9 °F 100% 29.74 in 0.5 mi Calm Calm - 0.02 in Fog , Snow Light Snow
5:53 AM 30.9 °F 26.2 °F 30.9 °F 100% 29.76 in 0.2 mi WSW 4.6 mph - 0.02 in Fog , Snow Light Snow
6:00 AM 30.2 °F 24.3 °F 30.2 °F 100% 29.85 in 0.5 mi WSW 5.8 mph - 0.00 in Fog , Snow Light Snow
6:05 AM 30.2 °F 25.4 °F 30.2 °F 100% 29.85 in 1.5 mi WSW 4.6 mph - 0.00 in Snow Light Snow
6:11 AM 30.2 °F 26.7 °F 30.2 °F 100% 29.85 in 0.8 mi WSW 3.5 mph - 0.00 in Snow Light Snow
6:39 AM 30.2 °F 25.4 °F 30.2 °F 100% 29.85 in 0.8 mi Variable 4.6 mph - 0.01 in Snow Light Snow
6:49 AM 30.2 °F 24.3 °F 30.2 °F 100% 29.85 in 0.8 mi Variable 5.8 mph - 0.01 in Snow Light Snow
6:53 AM 30.9 °F 25.2 °F 30.9 °F 100% 29.77 in 0.8 mi Variable 5.8 mph - 0.01 in Snow Light Snow
7:29 AM 30.2 °F 25.4 °F 30.2 °F 100% 29.85 in 0.2 mi Variable 4.6 mph - 0.00 in Fog , Snow Light Snow
7:53 AM 32.0 °F 28.7 °F 30.9 °F 96% 29.77 in 0.2 mi Variable 3.5 mph - 0.01 in Fog , Snow Snow
8:53 AM 30.9 °F 27.5 °F 30.9 °F 100% 29.78 in 0.2 mi Variable 3.5 mph - 0.01 in Fog , Snow Light Snow
9:30 AM 30.2 °F 25.4 °F 30.2 °F 100% 29.86 in 0.5 mi Variable 4.6 mph - 0.00 in Fog , Snow Light Snow
9:38 AM 32.0 °F - 30.2 °F 93% 29.86 in 0.2 mi Calm Calm - 0.01 in Fog , Snow Light Snow
9:53 AM 32.0 °F 28.7 °F 30.9 °F 96% 29.79 in 0.2 mi Variable 3.5 mph - 0.02 in Fog , Snow Snow
11:00 AM 32.0 °F - 32.0 °F 100% 29.87 in 1.0 mi Calm Calm - 0.00 in   Mist
11:06 AM 32.0 °F - 32.0 °F 100% 29.87 in 1.0 mi Calm Calm - 0.00 in   Mist
11:10 AM 32.0 °F - 32.0 °F 100% 29.88 in 0.2 mi Calm Calm - 0.00 in Fog Fog
11:53 AM 33.1 °F 30.0 °F 33.1 °F 100% 29.78 in 0.2 mi Variable 3.5 mph - 0.00 in Fog Fog
12:00 PM 33.8 °F 30.8 °F 33.8 °F 100% 29.87 in 1.0 mi Variable 3.5 mph - N/A   Overcast
12:02 PM 33.8 °F 30.8 °F 33.8 °F 100% 29.87 in 3.0 mi Variable 3.5 mph - N/A   Overcast
12:15 PM 35.6 °F 31.7 °F 35.6 °F 100% 29.87 in 5.0 mi Variable 4.6 mph - N/A   Overcast
12:53 PM 37.0 °F 31.6 °F 34.0 °F 89% 29.77 in 10.0 mi Variable 6.9 mph - N/A   Mostly Cloudy
1:16 PM 35.6 °F 32.8 °F 33.8 °F 93% 29.87 in 10.0 mi Variable 3.5 mph - 0.00 in   Overcast
1:22 PM 35.6 °F 30.7 °F 33.8 °F 93% 29.87 in 3.0 mi Variable 5.8 mph - 0.00 in   Overcast
1:26 PM 33.8 °F 28.6 °F 33.8 °F 100% 29.87 in 1.8 mi NW 5.8 mph - 0.00 in   Overcast
1:34 PM 33.8 °F - 33.8 °F 100% 29.87 in 0.8 mi Calm Calm - 0.00 in Snow Light Snow
1:43 PM 35.6 °F 32.8 °F 33.8 °F 93% 29.87 in 2.5 mi Variable 3.5 mph - 0.00 in Snow Light Snow
1:47 PM 35.6 °F 29.9 °F 32.0 °F 87% 29.87 in 9.0 mi SW 6.9 mph - 0.00 in   Overcast
1:53 PM 36.0 °F 32.1 °F 32.0 °F 86% 29.78 in 10.0 mi Variable 4.6 mph - 0.00 in   Overcast
2:05 PM 35.6 °F 31.7 °F 32.0 °F 87% 29.87 in 10.0 mi Variable 4.6 mph - N/A   Mostly Cloudy
2:24 PM 35.6 °F 29.9 °F 30.2 °F 81% 29.87 in 10.0 mi WSW 6.9 mph - N/A   Overcast
2:53 PM 37.0 °F 32.4 °F 30.9 °F 79% 29.77 in 10.0 mi Variable 5.8 mph - N/A   Mostly Cloudy
3:53 PM 39.0 °F 34.0 °F 30.0 °F 70% 29.76 in 10.0 mi Variable 6.9 mph - N/A   Mostly Cloudy
4:31 PM 39.2 °F 33.6 °F 30.2 °F 70% 29.86 in 10.0 mi WSW 8.1 mph - N/A   Mostly Cloudy
4:39 PM 39.2 °F 34.2 °F 30.2 °F 70% 29.86 in 10.0 mi West 6.9 mph - N/A   Mostly Cloudy
4:46 PM 37.4 °F 32.8 °F 28.4 °F 70% 29.86 in 10.0 mi Variable 5.8 mph - N/A   Scattered Clouds
4:53 PM 39.0 °F 34.0 °F 28.9 °F 67% 29.76 in 10.0 mi Variable 6.9 mph - N/A   Mostly Cloudy
5:53 PM 37.9 °F 34.4 °F 28.9 °F 70% 29.76 in 10.0 mi Variable 4.6 mph - N/A   Mostly Cloudy
6:32 PM 37.4 °F - 30.2 °F 75% 29.87 in 10.0 mi Calm Calm - N/A   Scattered Clouds
6:53 PM 35.1 °F 30.1 °F 30.9 °F 85% 29.78 in 10.0 mi NW 5.8 mph - N/A   Mostly Cloudy
6:56 PM 35.6 °F 29.9 °F 30.2 °F 81% 29.87 in 10.0 mi Variable 6.9 mph - N/A   Overcast
7:10 PM 33.8 °F 26.4 °F 32.0 °F 93% 29.88 in 2.0 mi NNW 9.2 mph 20.7 mph 0.00 in Snow Light Snow
7:13 PM 32.0 °F 24.2 °F 32.0 °F 100% 29.87 in 0.8 mi NNW 9.2 mph 20.7 mph 0.02 in Snow Light Snow
7:30 PM 32.0 °F 26.4 °F 32.0 °F 100% 29.88 in 1.5 mi NNW 5.8 mph - 0.03 in Snow Light Snow
7:34 PM 32.0 °F 26.4 °F 32.0 °F 100% 29.88 in 3.0 mi NNW 5.8 mph - 0.03 in Snow Light Snow
7:42 PM 32.0 °F 26.4 °F 32.0 °F 100% 29.88 in 9.0 mi NNW 5.8 mph - 0.03 in   Scattered Clouds
7:53 PM 32.0 °F 27.5 °F 32.0 °F 100% 29.80 in 10.0 mi NNW 4.6 mph - 0.03 in   Partly Cloudy
9:53 PM 32.0 °F 27.5 °F 28.0 °F 85% 29.81 in 10.0 mi Variable 4.6 mph - N/A   Clear
10:46 PM 33.8 °F 30.8 °F 28.4 °F 81% 29.89 in 10.0 mi WSW 3.5 mph - N/A   Mostly Cloudy
10:53 PM 33.1 °F 30.0 °F 28.9 °F 85% 29.80 in 10.0 mi Variable 3.5 mph - N/A   Overcast
11:05 PM 33.8 °F - 28.4 °F 81% 29.89 in 10.0 mi Calm Calm - N/A   Overcast
11:48 PM 33.8 °F 28.6 °F 28.4 °F 81% 29.88 in 10.0 mi WSW 5.8 mph - N/A   Mostly Cloudy
11:53 PM 33.1 °F 28.7 °F 28.9 °F 85% 29.79 in 10.0 mi SW 4.6 mph - N/A   Mostly Cloudy